Regional Weather Roundup
Issued by NWS Northern Indiana

Home | Current Version | Previous Version | Graphics & Text | Print | Product List | Glossary On
Versions: 1 2 3 4 5 6 7 8 9 10 11 12 13 14 15 16 17 18 19 20 21 22 23 24 25 26 27 28 29 30 31 32 33 34 35 36 37 38 39 40 41 42 43 44 45 46 47 48 49 50
000
ASUS43 KIWX 060700
RWRIWX

KIWX WEATHER ROUNDUP
NATIONAL WEATHER SERVICE NORTHERN INDIANA
300 AM EDT MON JUL 06 2015

NOTE: "FAIR" INDICATES FEW OR NO CLOUDS BELOW 12,000 FEET WITH NO
SIGNIFICANT WEATHER AND/OR OBSTRUCTIONS TO VISIBILITY.

* THESE STATIONS ARE NOT UNDER NWS QUALITY CONTROL. THEY ALSO MAY NOT
  REPORT WEATHER SUCH AS PRECIPITATION OR FOG.

INZ001>027-060800-
NORTHERN INDIANA

CITY           SKY/WX    TMP DP  RH WIND       PRES   REMARKS
KNOX*          CLEAR     64  63  94 S5        30.03R
SOUTH BEND     CLEAR     68  61  78 S5        30.05R
GOSHEN         CLEAR     62  59  90 CALM      30.05R
MONTICELLO*    CLEAR     67  65  92 CALM      30.03S
WARSAW*          N/A     63  59  88 CALM      30.05S
ANGOLA*          N/A     63  61  94 CALM      30.06F
FORT WAYNE     PTCLDY    63  59  87 CALM      30.06S
PERU/GRISSOM   CLEAR     65  62  90 S3        30.04S

$$
INZ028>050-060800-
CENTRAL INDIANA

CITY           SKY/WX    TMP DP  RH WIND       PRES   REMARKS
LAFAYETTE      CLEAR     67  63  87 CALM      30.03S
KOKOMO*        CLEAR     64  61  88 SW6       30.04F
MUNCIE*        CLEAR     66  60  81 SW5       30.06F
INDIANAPOLIS   CLEAR     66  62  87 SE3       30.03F

$$
MIZ043>046-050>051-056>058-064>065-071>073-077>080-060800-
SOUTHWEST LOWER MICHIGAN

CITY           SKY/WX    TMP DP  RH WIND       PRES   REMARKS
BATTLE CREEK   CLEAR     66  59  78 CALM      30.07R
BENTON HARBOR  CLEAR     65  60  84 SE5       30.02S
COLDWATER*     CLEAR     62  58  86 SE5       30.06R
HILLSDALE*     CLEAR     63  60  92 SE3       30.07S
HOLLAND        CLEAR     65  60  84 S7        30.03S
GRAND RAPIDS   CLEAR     64  60  87 S7        30.04R
KALAMAZOO      CLEAR     67  58  72 S6        30.05S
STURGIS*       CLEAR     63  61  94 CALM      30.05S
THREE RIVERS*  FAIR      62  59  89 CALM      30.06R

$$
OHZ001>008-015>018-024>025-060800-
NORTHWEST OHIO

CITY           SKY/WX    TMP DP  RH WIND       PRES   REMARKS
DEFIANCE       CLEAR     63  59  87 CALM      30.06S FOG
FINDLAY        PTCLDY    64  61  90 E5        30.05F
TOLEDO EXPRESS CLEAR     57  56  96 CALM      30.05F FOG
TOLEDO METCALF CLEAR     64  59  83 E3        30.06F
LIMA           PTCLDY    61  59  93 CALM      30.06F

$$
AND FOR LAKE MICHIGAN COASTAL AND OPEN LAKE BUOY OBSERVATIONS

STATION/POSITION TEMP    WIND        PRES    VSBY  WAVE
                 AIR SEA DIR/SP/G                  HT/PER
                 (F)     (DEG/KT/KT) (MB)    (MI)  (FT/S)
CALUMET HARBOR    72     180/  5/  6   N/A
MICHIGAN CITY     72     140/  8/ 11   N/A
BURNS HARBOR      71     190/  7/ 10 1017.3R
SAINT JOSEPH      69     140/  2/  6 1016.6S
4 MI NW BRIDGMAN  69 67                N/A           1
MICHIGAN CITY     69 67  180/  6/  8   N/A           0

$$
&&


USA.gov is the U.S. government's official web portal to all federal, state and local government web resources and services.